GFSNW_prec_kuchsnow_132.txt.gz
Snowfall_Accumulation
0.0 0.0 0.0 0.0 0.0 0.0 0.0 0.0 7.4 0.0 0.0 2.6 1.2 1.0 0.0 0.0 0.0 0.0 0.0 0.0 0.0 0.0 0.0 0.0 0.0 0.0 0.0 0.0 0.0 0.0 0.0 0.0 0.1 0.0 0.0 0.0 0.0 0.8 2.3 6.3 6.3 2.6 1.0 0.3
0.0 0.0 0.0 0.0 0.0 0.0 0.0 1.6 0.2 0.0 0.0 7.1 3.8 0.0 0.1 0.0 0.0 0.0 0.0 0.1 0.0 0.0 0.0 0.2 0.0 0.0 0.0 0.0 0.0 0.0 0.0 0.4 0.8 0.0 0.0 0.0 0.0 0.0 0.0 1.2 2.8 3.4 5.0 0.8
0.0 0.0 0.0 0.0 0.0 0.0 0.0 5.5 9.3 0.0 0.0 0.1 0.0 1.7 1.0 0.5 0.0 0.0 0.0 0.0 0.0 0.0 0.0 0.0 0.0 0.0 0.0 0.0 0.0 0.0 0.0 0.0 0.3 0.4 0.6 0.4 0.1 0.0 0.0 0.3 0.6 0.3 0.6 0.1
0.0 0.0 0.0 0.0 0.0 0.0 0.0 11.1 5.4 0.0 4.9 3.1 1.1 0.4 0.4 1.2 1.1 0.0 0.0 0.0 0.2 0.8 1.9 0.4 0.2 0.0 0.0 0.0 0.0 0.0 0.1 1.2 0.0 0.0 0.0 0.0 0.0 0.0 0.0 0.0 0.0 0.2 0.0 0.0
0.0 0.0 0.0 0.0 0.0 0.0 0.5 19.2 2.7 0.0 0.0 0.1 0.8 1.2 0.8 0.5 0.1 1.7 0.6 1.0 0.5 0.3 2.6 2.4 2.5 0.9 0.2 0.1 0.0 0.0 0.1 2.1 0.8 0.4 0.0 0.0 0.0 0.0 0.0 0.0 0.1 0.0 0.0 0.0
0.0 0.0 0.0 0.0 0.0 0.0 0.7 0.0 0.0 1.2 0.3 0.9 1.1 1.0 0.3 0.5 2.1 0.0 0.4 3.0 3.6 1.3 0.5 0.1 0.0 0.0 0.0 0.0 0.0 0.5 0.7 1.3 1.0 0.8 0.0 0.1 0.1 0.2 0.0 0.7 0.2 0.1 0.0 0.1
0.0 0.0 0.0 0.0 0.0 0.0 0.0 0.0 0.0 5.6 6.5 1.2 0.0 0.0 0.0 1.7 1.2 1.4 0.1 0.0 0.4 0.0 0.0 0.0 0.0 0.0 0.0 0.0 0.0 0.0 0.1 2.1 2.4 2.7 0.2 3.1 0.1 0.0 0.0 0.7 0.2 0.0 0.0 0.0
0.0 0.0 0.0 0.0 0.0 0.0 0.0 0.0 0.0 3.2 4.7 0.4 0.2 0.6 1.2 0.0 0.0 0.0 0.0 0.0 0.0 0.0 0.0 2.0 0.7 0.2 0.0 0.1 0.0 0.0 0.0 0.2 4.0 4.3 2.2 0.0 0.4 0.0 0.3 0.8 0.5 0.2 0.2 0.0
0.0 0.0 0.0 0.0 0.0 0.0 0.0 0.0 0.0 0.3 6.9 0.6 0.1 0.1 0.0 0.2 0.2 0.1 0.1 0.0 0.0 0.0 0.9 2.3 3.4 5.5 2.6 1.4 1.1 0.0 0.0 0.2 4.0 3.6 5.5 2.4 1.6 0.3 0.0 0.0 3.2 1.5 0.3 0.1
0.0 0.0 0.0 0.0 0.0 0.0 0.0 0.0 0.0 0.0 7.3 0.1 0.0 0.7 0.1 0.0 0.4 0.9 0.0 0.0 0.0 0.0 2.9 3.0 2.6 1.7 0.1 2.1 5.7 7.9 4.2 5.6 9.8 5.2 11.6 4.6 1.0 0.0 0.0 1.4 6.8 0.7 0.3 0.8
0.0 0.0 0.0 0.0 0.0 0.0 0.0 0.0 0.0 0.0 4.2 0.2 0.0 0.0 0.0 0.1 0.1 1.2 0.7 0.6 1.3 1.4 4.3 2.1 0.9 2.2 1.8 3.0 1.2 8.8 12.6 15.5 9.1 9.0 9.7 9.7 0.5 0.0 3.4 2.8 0.7 0.8 0.9 1.5
0.0 0.0 0.0 0.0 0.0 0.0 0.0 0.0 0.0 0.0 0.3 0.4 0.0 0.0 0.0 0.0 0.0 0.0 0.0 0.8 1.3 3.3 6.7 4.4 1.7 2.0 1.5 1.6 4.6 3.4 15.6 11.3 11.7 6.8 6.5 2.0 1.2 1.8 1.4 1.4 1.7 1.6 1.7 1.0
0.0 0.0 0.0 0.0 0.0 0.0 0.0 0.0 0.0 0.0 3.3 3.2 0.0 0.0 0.0 0.0 0.0 0.0 0.0 0.0 0.0 0.0 0.0 2.7 1.5 2.4 0.7 2.7 2.1 4.9 5.1 3.0 10.8 5.7 3.2 1.2 2.1 0.7 0.9 1.2 1.5 0.4 0.0 0.0
0.0 0.0 0.0 0.0 0.0 0.0 0.0 0.0 0.0 0.0 1.4 8.7 0.6 0.0 0.0 0.0 0.0 0.0 0.0 0.0 0.0 0.0 0.0 1.8 1.7 1.5 0.0 0.2 0.2 1.2 4.5 2.7 5.6 7.7 5.9 0.8 0.8 1.5 1.8 0.8 0.3 0.3 0.0 0.0
0.0 0.0 0.0 0.0 0.0 0.0 0.0 0.0 0.0 0.0 0.0 2.6 0.5 0.0 0.0 0.0 0.0 0.0 0.0 0.0 0.0 0.0 1.0 3.2 2.1 0.0 0.2 0.0 0.0 2.8 0.2 1.7 5.2 10.7 5.4 6.3 4.4 5.5 1.8 1.1 0.2 0.0 0.0 0.0
0.0 0.0 0.0 0.0 0.0 0.0 0.0 6.3 0.0 0.0 0.0 3.6 3.4 0.0 0.0 0.0 0.0 0.0 0.0 0.0 0.0 0.0 1.1 1.0 0.0 0.0 0.3 2.4 1.1 0.0 0.0 0.5 2.0 2.2 1.8 1.6 1.6 0.0 0.0 0.4 1.1 0.7 0.0 0.2
0.0 0.0 0.0 0.0 0.0 0.0 1.1 2.2 0.0 0.0 0.0 7.2 7.8 0.4 0.0 0.0 0.0 0.0 0.0 0.0 0.0 0.0 1.2 1.8 0.0 0.0 0.5 1.1 0.6 0.1 0.0 0.1 0.0 0.0 0.0 0.0 0.0 0.3 0.0 0.0 0.0 0.4 0.0 0.0
0.0 0.0 0.0 0.0 0.0 0.0 0.2 0.0 0.0 0.0 0.0 0.9 10.8 2.1 0.9 0.0 0.0 0.1 0.0 0.0 0.1 0.5 0.3 0.4 0.4 0.2 0.7 3.5 0.2 0.0 0.0 0.0 0.0 0.0 0.0 0.1 0.0 0.0 0.0 0.0 0.0 0.0 0.0 0.0
0.0 0.0 0.0 0.0 0.0 7.8 0.0 0.0 0.0 0.0 0.0 5.4 5.4 5.5 7.3 0.0 0.0 0.0 0.7 0.0 5.9 0.0 2.7 0.3 0.6 0.9 3.8 1.1 0.1 0.0 0.0 0.0 0.0 0.0 0.0 0.0 0.0 0.0 0.0 0.0 0.0 0.0 0.0 0.0
0.0 0.0 19.3 41.1 2.8 0.0 0.0 0.0 6.9 7.8 3.9 1.5 3.9 0.3 6.5 0.0 4.8 3.3 5.8 2.1 4.2 6.1 0.7 0.1 1.7 2.0 0.6 0.2 0.2 0.1 0.0 0.0 0.0 0.0 0.0 0.0 0.0 0.0 0.0 0.0 0.0 0.0 0.0 0.0
0.0 17.7 7.6 0.0 0.0 0.0 2.5 16.2 16.6 7.3 8.7 2.3 0.5 0.1 1.3 0.0 7.6 5.8 0.0 12.0 4.0 4.6 0.6 1.4 2.7 3.3 1.0 0.1 0.2 0.0 0.0 0.0 0.0 0.0 0.0 0.0 0.1 0.0 0.0 0.0 0.0 0.0 0.0 0.1
0.0 0.0 0.0 0.0 1.2 6.2 11.0 11.3 8.6 2.3 0.5 0.1 0.0 0.0 0.0 0.8 0.4 6.7 5.3 3.6 8.1 4.8 0.0 4.9 4.6 2.4 0.5 0.0 0.1 0.0 0.0 0.0 0.0 0.0 0.0 0.0 0.0 0.0 0.0 0.0 0.1 0.3 0.2 1.6
0.0 0.9 6.2 10.4 15.7 18.2 10.9 8.6 4.3 1.1 0.0 0.1 0.0 1.1 0.6 0.9 2.4 8.9 7.3 8.5 5.9 0.3 4.7 1.6 1.3 0.6 0.0 0.0 0.0 0.0 0.0 0.0 0.0 0.0 0.0 0.0 0.0 0.0 0.0 0.4 1.2 1.8 3.1 4.7
6.5 18.5 24.2 16.1 13.6 7.8 4.4 1.2 0.3 0.4 0.3 0.2 0.1 1.2 3.0 2.8 5.2 5.7 11.9 8.9 3.9 8.3 4.8 3.4 2.3 0.8 0.5 0.4 0.1 0.0 0.0 0.0 0.0 0.0 0.1 0.0 0.1 0.8 1.6 2.5 4.1 3.9 5.6 8.2
11.9 6.9 11.6 10.0 6.7 4.4 3.7 1.7 0.5 0.8 0.3 0.1 0.6 1.6 3.6 8.1 10.8 7.4 7.2 12.0 10.4 6.7 7.1 5.5 3.6 1.5 1.4 1.3 1.8 1.7 0.6 0.7 2.2 4.7 5.6 4.7 4.3 4.5 6.4 7.7 7.5 5.9 6.6 7.1
6.6 5.6 7.0 4.4 3.7 5.3 4.1 3.3 3.4 1.7 1.7 0.7 1.6 9.0 10.5 12.9 8.5 11.5 8.0 8.3 8.3 7.8 4.5 4.0 2.5 3.3 3.8 4.0 4.1 5.3 6.0 6.8 7.9 9.4 10.3 11.0 9.9 9.0 10.3 11.4 10.4 10.6 8.9 9.8
5.5 8.0 5.9 4.8 4.6 8.5 6.7 5.2 5.1 2.0 4.1 7.5 6.7 11.3 12.0 7.1 8.3 9.5 5.7 8.1 6.0 4.3 4.9 4.7 4.4 5.0 6.0 6.3 6.6 7.8 7.5 7.5 8.9 10.4 9.5 10.7 10.6 9.1 6.7 8.4 11.5 9.8 9.7 8.8

GFSNW_prec_kuchsnow_135.txt.gz
Snowfall_Accumulation
0.0 0.0 0.0 0.0 0.0 0.0 0.0 0.0 7.4 0.0 0.0 2.6 1.2 1.0 0.0 0.0 0.0 0.0 0.0 0.0 0.0 0.0 0.0 0.0 0.0 0.0 0.0 0.0 0.0 0.0 0.0 0.0 0.1 0.0 0.0 0.0 0.0 0.8 2.8 7.2 7.1 3.8 3.1 0.3
0.0 0.0 0.0 0.0 0.0 0.0 0.0 1.6 0.2 0.0 0.0 7.1 3.8 0.0 0.1 0.0 0.0 0.0 0.0 0.1 0.0 0.0 0.0 0.2 0.0 0.0 0.0 0.0 0.0 0.0 0.0 0.4 0.8 0.0 0.0 0.0 0.0 0.0 0.0 1.7 3.5 3.9 5.0 0.8
0.0 0.0 0.0 0.0 0.0 0.0 0.0 5.5 9.3 0.0 0.0 0.1 0.0 1.7 1.0 0.5 0.0 0.0 0.0 0.0 0.0 0.0 0.0 0.0 0.0 0.0 0.0 0.0 0.0 0.0 0.0 0.0 0.3 0.4 0.6 0.4 0.1 0.0 0.0 0.4 0.6 0.3 0.6 0.1
0.0 0.0 0.0 0.0 0.0 0.0 0.0 11.1 5.4 0.0 4.9 3.1 1.1 0.4 0.4 1.2 1.1 0.0 0.0 0.0 0.2 0.8 1.9 0.4 0.2 0.0 0.0 0.0 0.0 0.0 0.1 1.2 0.0 0.0 0.0 0.0 0.0 0.0 0.0 0.0 0.0 0.2 0.0 0.0
0.0 0.0 0.0 0.0 0.0 0.0 0.5 19.2 2.7 0.0 0.0 0.1 0.8 1.2 0.8 0.5 0.1 1.7 0.6 1.0 0.5 0.3 2.6 2.4 2.5 0.9 0.2 0.1 0.0 0.0 0.1 2.1 0.8 0.4 0.0 0.0 0.0 0.0 0.0 0.0 0.1 0.1 0.0 0.0
0.0 0.0 0.0 0.0 0.0 0.0 0.7 0.0 0.0 1.2 0.3 0.9 1.1 1.0 0.3 0.5 2.1 0.0 0.4 3.0 3.6 1.3 0.5 0.1 0.0 0.0 0.0 0.0 0.0 0.5 0.7 1.3 1.0 0.8 0.0 0.1 0.1 0.2 0.0 1.2 1.9 0.4 0.0 0.5
0.0 0.0 0.0 0.0 0.0 0.0 0.0 0.0 0.0 5.6 6.5 1.2 0.0 0.0 0.0 1.7 1.2 1.4 0.1 0.0 0.4 0.0 0.0 0.0 0.0 0.0 0.0 0.0 0.0 0.0 0.1 2.1 2.4 2.7 0.2 3.1 0.1 0.0 0.0 1.4 0.9 0.0 0.1 0.0
0.0 0.0 0.0 0.0 0.0 0.0 0.0 0.0 0.0 3.2 4.7 0.4 0.2 0.6 1.2 0.0 0.0 0.0 0.0 0.0 0.0 0.0 0.0 2.0 0.7 0.2 0.0 0.1 0.0 0.0 0.0 0.2 4.0 4.4 2.2 0.0 0.4 0.0 0.3 1.0 0.7 0.3 0.3 0.1
0.0 0.0 0.0 0.0 0.0 0.0 0.0 0.0 0.0 0.3 6.9 0.6 0.1 0.1 0.0 0.2 0.2 0.1 0.1 0.0 0.0 0.0 0.9 2.3 3.4 5.5 2.6 1.4 1.1 0.0 0.0 0.2 4.0 3.6 5.8 2.6 1.6 0.3 0.0 0.0 3.6 1.5 0.4 0.1
0.0 0.0 0.0 0.0 0.0 0.0 0.0 0.0 0.0 0.0 7.3 0.1 0.0 0.7 0.1 0.0 0.4 0.9 0.0 0.0 0.0 0.0 2.9 3.0 2.6 1.7 0.1 2.1 5.7 7.9 4.2 5.6 9.8 5.2 11.6 4.6 1.0 0.0 0.0 1.4 6.8 0.7 0.5 1.0
0.0 0.0 0.0 0.0 0.0 0.0 0.0 0.0 0.0 0.0 4.2 0.2 0.0 0.0 0.0 0.1 0.1 1.2 0.7 0.6 1.3 1.4 4.3 2.1 0.9 2.2 1.8 3.0 1.2 8.8 12.6 15.5 9.1 9.0 9.7 9.7 0.5 0.0 3.4 3.0 0.9 1.0 1.1 1.8
0.0 0.0 0.0 0.0 0.0 0.0 0.0 0.0 0.0 0.0 0.3 0.4 0.0 0.0 0.0 0.0 0.0 0.0 0.0 0.8 1.3 3.3 6.7 4.4 1.7 2.0 1.5 1.6 4.6 3.4 15.6 11.3 11.8 6.8 6.5 2.0 1.2 1.8 1.6 1.6 1.9 1.8 1.8 1.2
0.0 0.0 0.0 0.0 0.0 0.0 0.0 0.0 0.0 0.0 3.3 3.2 0.0 0.0 0.0 0.0 0.0 0.0 0.0 0.0 0.0 0.0 0.0 2.7 1.5 2.4 0.7 2.7 2.1 4.9 5.1 3.0 10.8 5.7 3.2 1.2 2.1 0.8 0.9 1.2 1.5 0.5 0.0 0.0
0.0 0.0 0.0 0.0 0.0 0.0 0.0 0.0 0.0 0.0 1.4 8.7 0.6 0.0 0.0 0.0 0.0 0.0 0.0 0.0 0.0 0.0 0.0 1.8 1.7 1.5 0.0 0.2 0.2 1.2 4.5 2.7 5.6 7.7 5.9 0.8 0.9 1.5 1.8 0.8 0.3 0.3 0.0 0.0
0.0 0.0 0.0 0.0 0.0 0.0 0.0 0.0 0.0 0.0 0.0 2.6 0.5 0.0 0.0 0.0 0.0 0.0 0.0 0.0 0.0 0.0 1.0 3.2 2.1 0.0 0.2 0.0 0.0 2.8 0.2 1.7 5.2 10.7 5.4 6.3 4.4 5.5 1.8 1.1 0.2 0.0 0.0 0.0
0.0 0.0 0.0 0.0 0.0 0.0 0.0 6.3 0.0 0.0 0.0 3.6 3.4 0.0 0.0 0.0 0.0 0.0 0.0 0.0 0.0 0.0 1.1 1.0 0.0 0.0 0.3 2.4 1.1 0.0 0.0 0.5 2.0 2.2 1.8 1.6 1.6 0.0 0.0 0.4 1.1 0.7 0.0 0.2
0.0 0.0 0.0 0.0 0.0 0.0 1.1 2.2 0.0 0.0 0.0 7.2 7.8 0.4 0.0 0.0 0.0 0.0 0.0 0.0 0.0 0.0 1.2 1.8 0.0 0.0 0.5 1.1 0.6 0.1 0.0 0.1 0.0 0.0 0.0 0.0 0.0 0.3 0.0 0.0 0.0 0.4 0.0 0.0
0.0 0.0 0.0 0.0 0.0 0.0 0.2 0.0 0.0 0.0 0.0 0.9 10.8 2.1 0.9 0.0 0.0 0.1 0.0 0.0 0.1 0.5 0.3 0.4 0.4 0.2 0.7 3.5 0.2 0.0 0.0 0.0 0.0 0.0 0.0 0.1 0.0 0.0 0.0 0.0 0.0 0.0 0.0 0.0
0.0 0.0 0.0 0.0 0.0 7.8 0.0 0.0 0.0 0.0 0.0 5.4 5.4 5.5 7.3 0.0 0.0 0.0 0.7 0.0 5.9 0.0 2.7 0.3 0.6 0.9 3.8 1.1 0.1 0.0 0.0 0.0 0.0 0.0 0.0 0.0 0.0 0.0 0.0 0.0 0.0 0.0 0.0 0.0
0.0 0.0 19.3 41.1 2.8 0.0 0.0 0.0 6.9 7.8 3.9 1.5 3.9 0.3 6.5 0.0 4.8 3.3 5.8 2.1 4.2 6.1 0.7 0.1 1.7 2.0 0.6 0.2 0.2 0.1 0.0 0.0 0.0 0.0 0.0 0.0 0.0 0.0 0.0 0.0 0.0 0.0 0.0 0.0
0.0 17.7 7.6 0.0 0.0 0.0 2.5 16.2 16.6 7.3 8.7 2.3 0.5 0.1 1.3 0.0 7.6 5.8 0.0 12.0 4.0 4.6 0.6 1.4 2.7 3.4 1.0 0.1 0.2 0.0 0.0 0.0 0.0 0.0 0.0 0.0 0.1 0.0 0.0 0.0 0.0 0.0 0.0 0.1
0.0 0.0 0.0 0.0 1.2 6.2 11.0 11.3 8.6 2.3 0.5 0.1 0.0 0.0 0.0 0.8 0.4 6.7 5.3 3.6 8.1 4.8 0.0 5.4 4.6 2.4 0.5 0.0 0.1 0.0 0.0 0.0 0.0 0.0 0.0 0.0 0.0 0.0 0.0 0.0 0.1 0.3 0.2 1.6
0.0 0.9 6.2 10.4 15.7 18.2 10.9 8.6 4.3 1.1 0.0 0.1 0.0 1.1 0.6 0.9 2.4 8.9 7.3 8.5 5.9 0.3 4.8 1.6 1.3 0.6 0.0 0.0 0.0 0.0 0.0 0.0 0.0 0.0 0.0 0.0 0.0 0.0 0.0 0.4 1.2 1.8 3.1 4.7
6.5 18.5 24.2 16.1 13.6 7.8 4.4 1.2 0.3 0.4 0.3 0.2 0.1 1.2 3.0 2.8 5.2 5.7 11.9 8.9 3.9 8.4 4.9 3.4 2.3 0.8 0.5 0.4 0.1 0.0 0.0 0.0 0.0 0.0 0.1 0.0 0.1 0.8 1.6 2.5 4.1 3.9 5.6 8.2
11.9 6.9 11.6 10.0 6.7 4.4 3.7 1.7 0.5 0.8 0.3 0.1 0.6 1.6 3.6 8.1 10.8 7.4 7.2 12.0 10.4 6.7 7.1 5.5 3.6 1.5 1.4 1.3 1.8 1.7 0.6 0.7 2.2 4.7 5.6 4.7 4.3 4.5 6.4 7.7 7.5 5.9 6.6 7.1
6.6 5.6 7.0 4.4 3.7 5.3 4.1 3.3 3.4 1.7 1.7 0.7 1.6 9.0 10.5 12.9 8.5 11.5 8.0 8.3 8.3 7.8 4.5 4.0 2.9 3.4 3.8 4.0 4.1 5.3 6.0 6.8 7.9 9.4 10.3 11.0 9.9 9.0 10.3 11.4 10.4 10.6 8.9 9.8
5.5 8.0 5.9 4.8 4.6 8.5 6.7 5.2 5.1 2.0 4.1 7.5 6.7 11.3 12.0 7.1 8.3 9.5 5.7 8.1 6.0 4.3 4.9 5.3 4.9 5.1 6.0 6.3 6.6 7.8 7.5 7.5 8.9 10.4 9.5 10.7 10.6 9.1 6.7 8.4 11.5 9.8 9.7 8.8

GFSNW_prec_kuchsnow_141.txt.gz
Snowfall_Accumulation
0.0 0.0 0.0 0.0 0.0 0.0 0.0 0.0 8.0 0.0 0.0 2.7 1.2 1.0 0.0 0.0 0.0 0.0 0.0 0.0 0.0 0.0 0.0 0.0 0.0 0.0 0.0 0.0 0.0 0.0 0.0 0.0 0.1 0.0 0.0 0.0 0.0 0.8 2.8 7.2 7.1 4.1 4.5 0.3
0.0 0.0 0.0 0.0 0.0 0.0 0.0 1.7 0.6 0.0 0.0 7.3 3.8 0.0 0.1 0.0 0.0 0.0 0.0 0.1 0.0 0.0 0.0 0.2 0.0 0.0 0.0 0.0 0.0 0.0 0.0 0.4 0.8 0.0 0.0 0.0 0.0 0.0 0.0 1.9 4.2 4.0 5.2 0.8
0.0 0.0 0.0 0.0 0.0 0.0 0.0 5.5 10.3 0.0 0.0 0.1 0.0 1.7 1.0 0.5 0.0 0.0 0.0 0.0 0.0 0.0 0.0 0.0 0.0 0.0 0.0 0.0 0.0 0.0 0.0 0.0 0.3 0.4 0.6 0.4 0.1 0.0 0.0 0.4 0.9 0.3 0.6 0.1
0.0 0.0 0.0 0.0 0.0 0.0 0.0 11.1 5.4 0.0 5.0 3.1 1.1 0.4 0.4 1.2 1.1 0.0 0.0 0.0 0.2 0.8 1.9 0.4 0.2 0.0 0.0 0.0 0.0 0.0 0.1 1.2 0.0 0.0 0.0 0.0 0.0 0.0 0.0 0.0 0.0 0.5 0.0 0.2
0.0 0.0 0.0 0.0 0.0 0.0 0.5 19.4 2.7 0.0 0.0 0.1 0.8 1.2 0.8 0.5 0.1 1.7 0.6 1.0 0.5 0.3 2.6 2.4 2.5 0.9 0.2 0.1 0.0 0.0 0.1 2.1 0.8 0.4 0.0 0.0 0.0 0.0 0.0 0.0 0.1 0.1 0.0 0.3
0.0 0.0 0.0 0.0 0.0 0.0 0.7 0.0 0.0 1.2 0.3 1.0 1.1 1.0 0.3 0.5 2.1 0.0 0.4 3.0 3.6 1.3 0.5 0.1 0.0 0.0 0.0 0.0 0.0 0.5 0.7 1.3 1.0 0.8 0.0 0.1 0.1 0.2 0.0 1.3 1.9 2.1 0.8 0.8
0.0 0.0 0.0 0.0 0.0 0.0 0.0 0.0 0.0 5.6 6.5 1.2 0.0 0.0 0.0 1.7 1.2 1.4 0.1 0.0 0.4 0.0 0.0 0.0 0.0 0.0 0.0 0.0 0.0 0.0 0.1 2.1 2.4 2.7 0.2 3.1 0.1 0.0 0.0 1.4 0.9 0.0 0.1 0.0
0.0 0.0 0.0 0.0 0.0 0.0 0.0 0.0 0.0 3.2 4.7 0.4 0.2 0.6 1.2 0.0 0.0 0.0 0.0 0.0 0.0 0.0 0.0 2.0 0.7 0.2 0.0 0.1 0.0 0.0 0.0 0.2 4.1 4.5 2.2 0.0 0.4 0.0 0.3 1.1 1.1 0.3 0.4 0.1
0.0 0.0 0.0 0.0 0.0 0.0 0.0 0.0 0.0 0.3 6.9 0.6 0.1 0.1 0.0 0.2 0.2 0.1 0.1 0.0 0.0 0.0 0.9 2.3 3.4 5.5 2.6 1.4 1.1 0.0 0.0 0.2 4.0 3.6 5.8 2.7 1.6 0.3 0.0 0.0 4.3 1.5 0.5 0.2
0.0 0.0 0.0 0.0 0.0 0.0 0.0 0.0 0.0 0.0 7.3 0.1 0.0 0.7 0.1 0.0 0.4 0.9 0.0 0.0 0.0 0.0 2.9 3.0 2.6 1.7 0.1 2.1 5.7 7.9 4.2 5.6 9.8 5.2 11.6 4.6 1.0 0.0 0.0 1.5 6.8 1.0 0.7 1.4
0.0 0.0 0.0 0.0 0.0 0.0 0.0 0.0 0.0 0.0 4.2 0.2 0.0 0.0 0.0 0.1 0.1 1.2 0.7 0.6 1.3 1.4 4.3 2.1 0.9 2.2 1.8 3.0 1.2 8.8 12.6 15.5 9.1 9.0 9.7 9.7 0.5 0.0 3.4 3.0 0.9 1.3 1.6 2.2
0.0 0.0 0.0 0.0 0.0 0.0 0.0 0.0 0.0 0.0 0.3 0.4 0.0 0.0 0.0 0.0 0.0 0.0 0.0 0.8 1.3 3.3 6.7 4.4 1.7 2.0 1.5 1.6 4.6 3.4 15.6 11.3 11.8 6.8 6.5 2.0 1.2 1.8 1.6 1.6 2.1 2.1 1.9 1.2
0.0 0.0 0.0 0.0 0.0 0.0 0.0 0.0 0.0 0.0 3.3 3.2 0.0 0.0 0.0 0.0 0.0 0.0 0.0 0.0 0.0 0.0 0.0 2.7 1.5 2.4 0.7 2.7 2.1 4.9 5.1 3.0 10.9 5.7 3.2 1.2 2.1 0.8 0.9 1.2 1.5 0.5 0.0 0.0
0.0 0.0 0.0 0.0 0.0 0.0 0.0 0.0 0.0 0.0 1.4 8.7 0.6 0.0 0.0 0.0 0.0 0.0 0.0 0.0 0.0 0.0 0.0 1.8 1.7 1.5 0.0 0.2 0.2 1.2 4.5 2.7 5.6 7.7 5.9 0.8 0.9 1.5 1.8 0.8 0.3 0.3 0.0 0.0
0.0 0.0 0.0 0.0 0.0 0.0 0.0 0.0 0.0 0.0 0.0 2.6 0.5 0.0 0.0 0.0 0.0 0.0 0.0 0.0 0.0 0.0 1.0 3.2 2.1 0.0 0.2 0.0 0.0 2.8 0.2 1.7 5.2 10.7 5.4 6.3 4.4 5.5 1.8 1.1 0.2 0.0 0.0 0.0
0.0 0.0 0.0 0.0 0.0 0.0 0.0 6.3 0.0 0.0 0.0 3.6 3.4 0.0 0.0 0.0 0.0 0.0 0.0 0.0 0.0 0.0 1.1 1.0 0.0 0.0 0.3 2.4 1.1 0.0 0.0 0.5 2.0 2.2 1.8 1.6 1.6 0.0 0.0 0.4 1.1 0.7 0.0 0.2
0.0 0.0 0.0 0.0 0.0 0.0 1.1 2.2 0.0 0.0 0.0 7.2 7.8 0.4 0.0 0.0 0.0 0.0 0.0 0.0 0.0 0.0 1.2 1.8 0.0 0.0 0.5 1.1 0.6 0.1 0.0 0.1 0.0 0.0 0.0 0.0 0.0 0.3 0.0 0.0 0.0 0.4 0.0 0.0
0.0 0.0 0.0 0.0 0.0 0.0 0.2 0.0 0.0 0.0 0.0 0.9 10.8 2.1 0.9 0.0 0.0 0.1 0.0 0.0 0.1 0.5 0.3 0.4 0.4 0.2 0.7 3.5 0.2 0.0 0.0 0.0 0.0 0.0 0.0 0.1 0.0 0.0 0.0 0.0 0.0 0.0 0.0 0.0
0.0 0.0 0.0 0.0 0.0 7.8 0.0 0.0 0.0 0.0 0.0 5.4 5.4 5.5 7.3 0.0 0.0 0.0 0.7 0.0 5.9 0.0 2.7 0.3 0.6 0.9 3.8 1.1 0.1 0.0 0.0 0.0 0.0 0.0 0.0 0.0 0.0 0.0 0.0 0.0 0.0 0.0 0.0 0.0
0.0 0.0 19.3 41.1 2.8 0.0 0.0 0.0 6.9 7.8 3.9 1.5 3.9 0.3 6.5 0.0 4.8 3.3 5.8 2.1 4.2 6.1 0.7 0.1 1.7 2.0 0.6 0.2 0.2 0.1 0.0 0.0 0.0 0.0 0.0 0.0 0.0 0.0 0.0 0.0 0.0 0.0 0.0 0.0
0.0 17.7 7.6 0.0 0.0 0.0 2.5 16.2 16.6 7.3 8.7 2.3 0.5 0.1 1.3 0.0 7.6 5.8 0.0 12.0 4.0 4.6 0.6 1.4 2.7 3.4 1.0 0.1 0.2 0.0 0.0 0.0 0.0 0.0 0.0 0.0 0.1 0.0 0.0 0.0 0.0 0.0 0.0 0.1
0.0 0.0 0.0 0.0 1.2 6.2 11.0 11.3 8.6 2.3 0.5 0.1 0.0 0.0 0.0 0.8 0.4 6.7 5.3 3.6 8.1 4.8 0.0 5.7 4.6 2.4 0.5 0.0 0.1 0.0 0.0 0.0 0.0 0.0 0.0 0.0 0.0 0.0 0.0 0.0 0.1 0.3 0.2 1.6
0.0 0.9 6.2 10.4 15.7 18.2 10.9 8.6 4.3 1.1 0.0 0.1 0.0 1.1 0.6 0.9 2.4 8.9 7.3 8.5 5.9 0.3 4.9 1.6 1.3 0.6 0.0 0.0 0.0 0.0 0.0 0.0 0.0 0.0 0.0 0.0 0.0 0.0 0.0 0.4 1.2 1.8 3.1 4.7
6.5 18.5 24.2 16.1 13.6 7.8 4.4 1.2 0.3 0.4 0.3 0.2 0.1 1.2 3.0 2.8 5.2 5.7 11.9 8.9 3.9 8.4 5.0 3.4 2.3 0.8 0.5 0.4 0.1 0.0 0.0 0.0 0.0 0.0 0.1 0.0 0.1 0.8 1.6 2.5 4.1 3.9 5.6 8.2
11.9 6.9 11.6 10.0 6.7 4.4 3.7 1.7 0.5 0.8 0.3 0.1 0.6 1.6 3.6 8.1 10.8 7.4 7.2 12.0 10.4 6.7 7.1 5.5 3.6 1.5 1.4 1.3 1.8 1.7 0.6 0.7 2.2 4.7 5.6 4.7 4.3 4.5 6.4 7.7 7.5 5.9 6.6 7.1
6.6 5.6 7.1 4.5 3.7 5.3 4.1 3.3 3.4 1.7 1.7 0.7 1.6 9.0 10.5 12.9 8.5 11.5 8.0 8.3 8.3 7.8 4.5 4.0 2.9 3.4 4.1 4.1 4.1 5.3 6.0 6.8 7.9 9.4 10.3 11.0 9.9 9.0 10.3 11.4 10.4 10.6 8.9 9.8
5.5 8.1 5.9 4.8 4.6 8.5 6.7 5.2 5.1 2.0 4.1 7.5 6.7 11.3 12.0 7.1 8.3 9.5 5.7 8.1 6.0 4.3 4.9 5.3 4.9 5.1 6.0 6.3 6.6 7.8 7.5 7.5 8.9 10.4 9.5 10.7 10.6 9.1 6.7 8.4 11.5 9.8 9.7 8.8

GFSNW_prec_kuchsnow_147.txt.gz
Snowfall_Accumulation
0.0 0.0 0.0 0.0 0.0 0.0 0.0 0.0 12.0 0.0 0.0 3.5 1.2 1.0 0.0 0.0 0.0 0.0 0.0 0.0 0.0 0.0 0.0 0.0 0.0 0.0 0.0 0.0 0.0 0.0 0.0 0.0 0.1 0.0 0.0 0.0 0.0 0.8 2.8 7.2 7.2 4.1 4.5 0.3
0.0 0.0 0.0 0.0 0.0 0.0 0.0 4.6 4.3 0.0 0.0 10.4 4.3 0.0 0.1 0.0 0.0 0.0 0.0 0.1 0.0 0.0 0.0 0.2 0.0 0.0 0.0 0.0 0.0 0.0 0.0 0.4 0.8 0.0 0.0 0.0 0.0 0.0 0.0 1.9 4.2 4.0 5.4 0.8
0.0 0.0 0.0 0.0 0.0 0.0 0.0 5.5 15.1 3.7 0.0 0.1 0.2 1.7 1.0 0.5 0.0 0.0 0.0 0.0 0.0 0.0 0.0 0.0 0.0 0.0 0.0 0.0 0.0 0.0 0.0 0.0 0.3 0.4 0.6 0.4 0.1 0.0 0.0 0.4 1.0 0.4 0.6 0.1
0.0 0.0 0.0 0.0 0.0 0.0 0.0 12.4 7.0 0.0 6.5 3.6 1.1 0.4 0.4 1.2 1.2 0.0 0.0 0.0 0.2 0.8 1.9 0.4 0.2 0.0 0.0 0.0 0.0 0.0 0.1 1.2 0.0 0.0 0.0 0.0 0.0 0.0 0.0 0.0 0.0 0.6 0.0 0.2
0.0 0.0 0.0 0.0 0.0 0.0 0.5 21.9 3.1 0.0 0.0 0.1 0.8 1.2 0.8 0.5 0.1 1.7 0.6 1.0 0.5 0.3 2.6 2.4 2.5 0.9 0.2 0.1 0.0 0.0 0.1 2.1 0.8 0.4 0.0 0.0 0.0 0.0 0.0 0.0 0.1 0.1 0.0 0.3
0.0 0.0 0.0 0.0 0.0 0.0 0.7 0.0 0.0 1.2 0.3 1.0 1.1 1.0 0.3 0.5 2.1 0.0 0.4 3.0 3.6 1.3 0.5 0.1 0.0 0.0 0.0 0.0 0.0 0.5 0.7 1.3 1.0 0.8 0.0 0.1 0.1 0.2 0.0 1.3 1.9 2.1 0.8 0.8
0.0 0.0 0.0 0.0 0.0 0.0 0.0 0.0 0.0 5.8 6.8 1.2 0.0 0.0 0.0 1.7 1.2 1.4 0.1 0.0 0.4 0.0 0.0 0.0 0.0 0.0 0.0 0.0 0.0 0.0 0.1 2.1 2.4 2.7 0.2 3.2 0.1 0.0 0.0 1.4 0.9 0.0 0.1 0.0
0.0 0.0 0.0 0.0 0.0 0.0 0.0 0.0 0.0 3.2 4.7 0.4 0.2 0.6 1.2 0.0 0.0 0.0 0.0 0.0 0.0 0.0 0.0 2.0 0.7 0.2 0.0 0.1 0.0 0.0 0.0 0.2 4.1 4.5 2.3 0.0 0.4 0.0 0.3 1.1 1.1 0.3 0.4 0.1
0.0 0.0 0.0 0.0 0.0 0.0 0.0 0.0 0.0 0.3 6.9 0.6 0.1 0.1 0.0 0.2 0.2 0.1 0.1 0.0 0.0 0.0 0.9 2.3 3.4 5.5 2.6 1.4 1.1 0.0 0.0 0.2 4.0 3.6 5.8 2.8 1.6 0.3 0.0 0.0 4.4 1.5 0.5 0.2
0.0 0.0 0.0 0.0 0.0 0.0 0.0 0.0 0.0 0.0 7.3 0.1 0.0 0.7 0.1 0.0 0.4 0.9 0.0 0.0 0.0 0.0 2.9 3.0 2.6 1.7 0.1 2.1 5.7 7.9 4.2 5.6 9.8 5.2 11.6 4.6 1.0 0.0 0.0 1.6 7.1 1.0 0.7 1.4
0.0 0.0 0.0 0.0 0.0 0.0 0.0 0.0 0.0 0.0 4.2 0.2 0.0 0.0 0.0 0.1 0.1 1.2 0.7 0.6 1.3 1.4 4.3 2.1 0.9 2.2 1.8 3.0 1.2 8.8 12.6 15.5 9.1 9.1 9.8 9.8 0.5 0.0 3.4 3.0 0.9 1.3 1.6 2.2
0.0 0.0 0.0 0.0 0.0 0.0 0.0 0.0 0.0 0.0 0.3 0.4 0.0 0.0 0.0 0.0 0.0 0.0 0.0 0.8 1.3 3.3 6.7 4.4 1.7 2.0 1.5 1.6 4.6 3.4 15.6 11.3 11.8 6.8 6.5 2.0 1.2 1.8 1.6 1.6 2.1 2.1 1.9 1.2
0.0 0.0 0.0 0.0 0.0 0.0 0.0 0.0 0.0 0.0 3.3 3.2 0.0 0.0 0.0 0.0 0.0 0.0 0.0 0.0 0.0 0.0 0.0 2.7 1.5 2.4 0.7 2.7 2.1 4.9 5.1 3.0 10.9 5.7 3.2 1.2 2.1 0.8 0.9 1.2 1.5 0.5 0.0 0.0
0.0 0.0 0.0 0.0 0.0 0.0 0.0 0.0 0.0 0.0 1.4 8.7 0.6 0.0 0.0 0.0 0.0 0.0 0.0 0.0 0.0 0.0 0.0 1.8 1.7 1.5 0.0 0.2 0.2 1.2 4.5 2.7 5.6 7.7 5.9 0.8 0.9 1.5 1.8 0.8 0.3 0.3 0.0 0.0
0.0 0.0 0.0 0.0 0.0 0.0 0.0 0.0 0.0 0.0 0.0 2.6 0.5 0.0 0.0 0.0 0.0 0.0 0.0 0.0 0.0 0.0 1.0 3.2 2.1 0.0 0.2 0.0 0.0 2.8 0.2 1.7 5.2 10.7 5.4 6.3 4.4 5.5 1.8 1.1 0.2 0.0 0.0 0.0
0.0 0.0 0.0 0.0 0.0 0.0 0.0 6.3 0.0 0.0 0.0 3.6 3.4 0.0 0.0 0.0 0.0 0.0 0.0 0.0 0.0 0.0 1.1 1.0 0.0 0.0 0.3 2.4 1.1 0.0 0.0 0.5 2.0 2.2 1.8 1.6 1.6 0.0 0.0 0.4 1.1 0.7 0.0 0.2
0.0 0.0 0.0 0.0 0.0 0.0 1.1 2.2 0.0 0.0 0.0 7.2 7.8 0.4 0.0 0.0 0.0 0.0 0.0 0.0 0.0 0.0 1.2 1.8 0.0 0.0 0.5 1.1 0.6 0.1 0.0 0.1 0.0 0.0 0.0 0.0 0.0 0.3 0.0 0.0 0.0 0.4 0.0 0.0
0.0 0.0 0.0 0.0 0.0 0.0 0.2 0.0 0.0 0.0 0.0 0.9 10.8 2.1 0.9 0.0 0.0 0.1 0.0 0.0 0.1 0.5 0.3 0.4 0.4 0.2 0.7 3.5 0.2 0.0 0.0 0.0 0.0 0.0 0.0 0.1 0.0 0.0 0.0 0.0 0.0 0.0 0.0 0.0
0.0 0.0 0.0 0.0 0.0 7.8 0.0 0.0 0.0 0.0 0.0 5.4 5.4 5.5 7.3 0.0 0.0 0.0 0.7 0.0 5.9 0.0 2.7 0.3 0.6 0.9 3.8 1.1 0.1 0.0 0.0 0.0 0.0 0.0 0.0 0.0 0.0 0.0 0.0 0.0 0.0 0.0 0.0 0.0
0.0 0.0 19.3 41.1 2.8 0.0 0.0 0.0 6.9 7.8 3.9 1.5 3.9 0.3 6.5 0.0 4.8 3.3 5.8 2.1 4.2 6.1 0.7 0.1 1.7 2.0 0.6 0.2 0.2 0.1 0.0 0.0 0.0 0.0 0.0 0.0 0.0 0.0 0.0 0.0 0.0 0.0 0.0 0.0
0.0 17.7 7.6 0.0 0.0 0.0 2.5 16.2 16.6 7.3 8.7 2.3 0.5 0.1 1.3 0.0 7.6 5.8 0.0 12.0 4.0 4.6 0.6 1.4 2.7 3.4 1.0 0.1 0.2 0.0 0.0 0.0 0.0 0.0 0.0 0.0 0.1 0.0 0.0 0.0 0.0 0.0 0.0 0.1
0.0 0.0 0.0 0.0 1.2 6.2 11.0 11.3 8.6 2.3 0.5 0.1 0.0 0.0 0.0 0.8 0.4 6.7 5.3 3.6 8.1 4.8 0.0 5.7 4.6 2.4 0.5 0.0 0.1 0.0 0.0 0.0 0.0 0.0 0.0 0.0 0.0 0.0 0.0 0.0 0.1 0.3 0.2 1.6
0.0 0.9 6.2 10.4 15.7 18.2 10.9 8.6 4.3 1.1 0.0 0.1 0.0 1.1 0.6 0.9 2.4 8.9 7.3 8.5 5.9 0.3 4.9 1.6 1.3 0.6 0.0 0.0 0.0 0.0 0.0 0.0 0.0 0.0 0.0 0.0 0.0 0.0 0.0 0.4 1.2 1.8 3.1 4.7
6.5 18.5 24.2 16.1 13.6 7.8 4.4 1.2 0.3 0.4 0.3 0.2 0.1 1.2 3.0 2.8 5.2 5.7 11.9 8.9 3.9 8.4 5.0 3.4 2.3 0.8 0.5 0.4 0.1 0.0 0.0 0.0 0.0 0.0 0.1 0.0 0.1 0.8 1.6 2.5 4.1 3.9 5.6 8.2
11.9 6.9 11.6 10.1 6.7 4.4 3.7 1.7 0.5 0.8 0.3 0.1 0.6 1.6 3.6 8.1 10.8 7.4 7.2 12.0 10.4 6.7 7.1 5.5 3.6 1.5 1.4 1.3 1.8 1.7 0.6 0.7 2.2 4.7 5.6 4.7 4.3 4.5 6.4 7.7 7.5 5.9 6.6 7.1
6.6 5.6 7.2 4.6 3.8 5.4 4.1 3.3 3.4 1.7 1.7 0.7 1.6 9.0 10.5 12.9 8.5 11.5 8.0 8.3 8.3 7.8 4.5 4.0 2.9 3.4 4.1 4.1 4.1 5.3 6.0 6.8 7.9 9.4 10.3 11.0 9.9 9.0 10.3 11.4 10.4 10.6 8.9 9.8
5.5 8.2 6.1 4.9 4.6 8.7 6.8 5.3 5.1 2.0 4.1 7.5 6.7 11.3 12.0 7.1 8.3 9.5 5.7 8.1 6.0 4.3 4.9 5.3 4.9 5.1 6.0 6.3 6.6 7.8 7.5 7.5 8.9 10.4 9.5 10.7 10.6 9.1 6.7 8.5 11.5 9.8 9.7 8.8

GFSNW_prec_kuchsnow_150.txt.gz
Snowfall_Accumulation
0.0 0.0 0.0 0.0 0.0 0.0 0.0 0.0 12.0 0.0 0.0 3.9 1.2 1.2 0.0 0.0 0.0 0.0 0.0 0.0 0.0 0.0 0.0 0.0 0.0 0.0 0.0 0.0 0.0 0.0 0.0 0.0 0.1 0.0 0.0 0.0 0.0 0.8 2.8 7.2 7.2 4.1 4.5 0.3
0.0 0.0 0.0 0.0 0.0 0.0 0.0 4.6 5.2 0.0 0.0 13.3 4.9 0.0 0.1 0.0 0.0 0.0 0.0 0.1 0.0 0.0 0.0 0.2 0.0 0.0 0.0 0.0 0.0 0.0 0.0 0.4 0.8 0.0 0.0 0.0 0.0 0.0 0.0 1.9 4.2 4.0 5.4 0.8
0.0 0.0 0.0 0.0 0.0 0.0 0.0 5.5 17.5 5.2 0.8 0.1 0.5 1.7 1.0 0.5 0.0 0.0 0.0 0.0 0.0 0.0 0.0 0.0 0.0 0.0 0.0 0.0 0.0 0.0 0.0 0.0 0.3 0.4 0.6 0.4 0.1 0.0 0.0 0.4 1.0 0.4 0.6 0.1
0.0 0.0 0.0 0.0 0.0 0.0 0.0 12.4 7.6 0.0 7.2 3.9 1.1 0.4 0.4 1.2 1.2 0.0 0.0 0.0 0.2 0.8 1.9 0.4 0.2 0.0 0.0 0.0 0.0 0.0 0.1 1.2 0.0 0.0 0.0 0.0 0.0 0.0 0.0 0.0 0.0 0.6 0.0 0.2
0.0 0.0 0.0 0.0 0.0 0.0 0.5 23.1 3.1 0.0 0.0 0.1 0.8 1.2 0.8 0.5 0.1 1.7 0.6 1.0 0.5 0.3 2.6 2.4 2.5 0.9 0.2 0.1 0.0 0.0 0.1 2.1 0.8 0.4 0.0 0.0 0.0 0.0 0.0 0.0 0.1 0.1 0.0 0.3
0.0 0.0 0.0 0.0 0.0 0.0 0.7 0.0 0.0 1.2 0.3 1.0 1.1 1.0 0.3 0.5 2.1 0.0 0.4 3.0 3.6 1.3 0.5 0.1 0.0 0.0 0.0 0.0 0.0 0.5 0.7 1.3 1.0 0.8 0.0 0.1 0.1 0.2 0.0 1.3 1.9 2.1 0.8 0.8
0.0 0.0 0.0 0.0 0.0 0.0 0.0 0.0 0.0 5.8 6.9 1.2 0.0 0.0 0.0 1.7 1.2 1.4 0.1 0.0 0.4 0.0 0.0 0.0 0.0 0.0 0.0 0.0 0.0 0.0 0.1 2.1 2.4 2.7 0.2 3.2 0.1 0.0 0.0 1.4 0.9 0.0 0.1 0.0
0.0 0.0 0.0 0.0 0.0 0.0 0.0 0.0 0.0 3.2 4.7 0.4 0.2 0.6 1.2 0.0 0.0 0.0 0.0 0.0 0.0 0.0 0.0 2.0 0.7 0.2 0.0 0.1 0.0 0.0 0.0 0.2 4.1 4.5 2.3 0.0 0.4 0.0 0.3 1.1 1.1 0.3 0.4 0.1
0.0 0.0 0.0 0.0 0.0 0.0 0.0 0.0 0.0 0.3 6.9 0.6 0.1 0.1 0.0 0.2 0.2 0.1 0.1 0.0 0.0 0.0 0.9 2.3 3.4 5.5 2.6 1.4 1.1 0.0 0.0 0.2 4.0 3.7 5.8 2.8 1.6 0.3 0.0 0.0 4.4 1.5 0.5 0.2
0.0 0.0 0.0 0.0 0.0 0.0 0.0 0.0 0.0 0.0 7.3 0.1 0.0 0.7 0.1 0.0 0.4 0.9 0.0 0.0 0.0 0.0 2.9 3.0 2.6 1.7 0.1 2.1 5.7 7.9 4.2 5.6 9.9 5.2 11.8 4.6 1.0 0.0 0.0 1.6 7.1 1.0 0.7 1.4
0.0 0.0 0.0 0.0 0.0 0.0 0.0 0.0 0.0 0.0 4.2 0.2 0.0 0.0 0.0 0.1 0.1 1.2 0.7 0.6 1.3 1.4 4.3 2.1 0.9 2.2 1.8 3.0 1.2 8.8 12.6 15.5 9.2 9.1 9.8 9.9 0.5 0.0 3.4 3.0 0.9 1.3 1.6 2.2
0.0 0.0 0.0 0.0 0.0 0.0 0.0 0.0 0.0 0.0 0.3 0.4 0.0 0.0 0.0 0.0 0.0 0.0 0.0 0.8 1.3 3.3 6.7 4.4 1.7 2.0 1.5 1.6 4.6 3.4 15.6 11.3 11.8 6.9 6.5 2.0 1.2 1.8 1.6 1.6 2.1 2.1 1.9 1.2
0.0 0.0 0.0 0.0 0.0 0.0 0.0 0.0 0.0 0.0 3.3 3.2 0.0 0.0 0.0 0.0 0.0 0.0 0.0 0.0 0.0 0.0 0.0 2.7 1.5 2.4 0.7 2.7 2.1 4.9 5.1 3.0 10.9 5.7 3.2 1.2 2.1 0.8 0.9 1.2 1.5 0.5 0.0 0.0
0.0 0.0 0.0 0.0 0.0 0.0 0.0 0.0 0.0 0.0 1.4 9.1 0.6 0.0 0.0 0.0 0.0 0.0 0.0 0.0 0.0 0.0 0.0 1.8 1.7 1.5 0.0 0.2 0.2 1.2 4.5 2.7 5.6 7.7 5.9 0.8 0.9 1.5 1.8 0.8 0.3 0.3 0.0 0.0
0.0 0.0 0.0 0.0 0.0 0.0 0.0 0.0 0.0 0.0 0.0 2.6 0.5 0.0 0.0 0.0 0.0 0.0 0.0 0.0 0.0 0.0 1.0 3.2 2.1 0.0 0.2 0.0 0.0 2.8 0.2 1.7 5.2 10.8 5.4 6.3 4.4 5.5 1.8 1.1 0.2 0.0 0.0 0.0
0.0 0.0 0.0 0.0 0.0 0.0 0.0 6.3 0.0 0.0 0.0 3.6 3.4 0.0 0.0 0.0 0.0 0.0 0.0 0.0 0.0 0.0 1.1 1.0 0.0 0.0 0.3 2.4 1.1 0.0 0.0 0.5 2.0 2.2 1.8 1.6 1.6 0.0 0.0 0.4 1.1 0.7 0.0 0.2
0.0 0.0 0.0 0.0 0.0 0.0 1.1 2.2 0.0 0.0 0.0 7.2 7.8 0.4 0.0 0.0 0.0 0.0 0.0 0.0 0.0 0.0 1.2 1.8 0.0 0.0 0.5 1.1 0.6 0.1 0.0 0.1 0.0 0.0 0.0 0.0 0.0 0.3 0.0 0.0 0.0 0.4 0.0 0.0
0.0 0.0 0.0 0.0 0.0 0.0 0.2 0.0 0.0 0.0 0.0 0.9 10.8 2.1 0.9 0.0 0.0 0.1 0.0 0.0 0.1 0.5 0.3 0.4 0.4 0.2 0.7 3.5 0.2 0.0 0.0 0.0 0.0 0.0 0.0 0.1 0.0 0.0 0.0 0.0 0.0 0.0 0.0 0.0
0.0 0.0 0.0 0.0 0.0 7.8 0.0 0.0 0.0 0.0 0.0 5.4 5.4 5.5 7.3 0.0 0.0 0.0 0.7 0.0 5.9 0.0 2.7 0.3 0.6 0.9 3.8 1.1 0.1 0.0 0.0 0.0 0.0 0.0 0.0 0.0 0.0 0.0 0.0 0.0 0.0 0.0 0.0 0.0
0.0 0.0 19.3 41.1 2.8 0.0 0.0 0.0 6.9 7.8 3.9 1.5 3.9 0.3 6.5 0.0 4.8 3.3 5.8 2.1 4.2 6.1 0.7 0.1 1.7 2.0 0.6 0.2 0.2 0.1 0.0 0.0 0.0 0.0 0.0 0.0 0.0 0.0 0.0 0.0 0.0 0.0 0.0 0.0
0.0 17.7 7.6 0.0 0.0 0.0 2.5 16.2 16.6 7.3 8.7 2.3 0.5 0.1 1.3 0.0 7.6 5.8 0.0 12.0 4.0 4.6 0.6 1.4 2.7 3.4 1.0 0.1 0.2 0.0 0.0 0.0 0.0 0.0 0.0 0.0 0.1 0.0 0.0 0.0 0.0 0.0 0.0 0.1
0.0 0.0 0.0 0.0 1.2 6.2 11.0 11.3 8.6 2.3 0.5 0.1 0.0 0.0 0.0 0.8 0.4 6.7 5.3 3.6 8.1 4.9 0.0 5.7 4.6 2.4 0.5 0.0 0.1 0.0 0.0 0.0 0.0 0.0 0.0 0.0 0.0 0.0 0.0 0.0 0.1 0.3 0.2 1.6
0.0 0.9 6.2 10.4 15.7 18.2 10.9 8.6 4.3 1.1 0.0 0.1 0.0 1.1 0.6 0.9 2.4 8.9 7.3 8.5 5.9 0.3 4.9 1.6 1.3 0.6 0.0 0.0 0.0 0.0 0.0 0.0 0.0 0.0 0.0 0.0 0.0 0.0 0.0 0.4 1.2 1.8 3.1 4.7
6.5 18.5 24.2 16.1 13.6 7.8 4.4 1.2 0.3 0.4 0.3 0.2 0.1 1.2 3.0 2.8 5.2 5.7 11.9 8.9 3.9 8.4 5.0 3.4 2.3 0.8 0.5 0.4 0.1 0.0 0.0 0.0 0.0 0.0 0.1 0.0 0.1 0.8 1.6 2.5 4.1 3.9 5.6 8.2
11.9 6.9 11.6 10.1 6.7 4.4 3.7 1.7 0.5 0.8 0.3 0.1 0.6 1.6 3.6 8.1 10.8 7.4 7.2 12.0 10.4 6.7 7.1 5.5 3.6 1.5 1.4 1.3 1.8 1.7 0.6 0.7 2.2 4.7 5.6 4.7 4.3 4.5 6.4 7.7 7.5 5.9 6.6 7.1
6.6 5.7 7.3 4.7 3.8 5.4 4.1 3.3 3.4 1.7 1.7 0.7 1.6 9.0 10.5 12.9 8.5 11.5 8.0 8.3 8.3 7.8 4.6 4.0 2.9 3.4 4.1 4.1 4.1 5.3 6.0 6.8 7.9 9.4 10.3 11.0 9.9 9.0 10.3 11.4 10.4 10.6 8.9 9.8
5.5 8.3 6.2 4.9 4.7 8.9 6.9 5.3 5.1 2.0 4.1 7.5 6.7 11.3 12.0 7.1 8.3 9.5 5.7 8.1 6.0 4.3 4.9 5.3 4.9 5.1 6.0 6.3 6.6 7.8 7.5 7.5 8.9 10.4 9.5 10.7 10.6 9.1 6.7 8.5 11.5 9.8 9.7 8.8